User: anonymous   Login
Location: Most
(50.5133°N, 13.6207°E)
Time: 22:15:57
(UTC+01:00)
Language:

PRISM - Orbit

View from above orbital plane
View from above orbital plane
View from above satellite
View from above satellite

Ground track
Ground track

The orbit data is extracted from the following two-line orbital elements,

1 33493U 09002B   21338.87536898  .00002202  00000-0  19086-3 0  9997
2 33493  98.2113 309.8807 0016722  83.7733 276.5392 14.98139758699836
Epoch (UTC): 04 December 2021 21:00:31
Eccentricity: 0.0016722
inclination: 98.2113°
perigee height: 561 km
apogee height: 584 km
right ascension of ascending node: 309.8807°
argument of perigee: 83.7733°
revolutions per day: 14.98139758
mean anomaly at epoch: 276.5392°
orbit number at epoch: 69983

The dashed part of the orbit path shows where the satellite is in the earth's shadow,  

DLR